Flag for Norway Weather past 2 weeks in Svolvær, Norway

Now
50 °F

Overcast.


Feels Like: 48 °F
Forecast: 48 / 55 °F
Wind: 5 mph from North

Location: Leknes

Current Time: Aug 28, 2014 at 1:23:04 AM

Latest Report: Aug 27, 2014 at 9:50 PM


Visibility: N/A

Pressure: 30.01 "Hg

Humidity: 82%

Dew point: 45 °F

Location of SvolværLocation

Historic Weather in Svolvær — Graph

°F

Svolvær temperature yesterday

Maximum temperature yesterday: 50 °F (at 12:50 PM)
Minimum temperature yesterday: 46 °F (at 5:20 AM)
Average temperature yesterday: 49 °F

Past Weeks' High & Low Weather Summary

 TemperatureHumidityPressure
High64 °F (Aug 25, 4:50 PM)100% (Aug 12, 9:50 PM)30.01 "Hg (Aug 12, 9:50 PM)
Low41 °F (Aug 26, 5:20 AM)43% (Aug 25, 4:50 PM)29.33 "Hg (Aug 13, 5:20 AM)
Average53 °F81%29.64 "Hg
* Reported Aug 12 9:50 PM — Aug 27 9:50 PM, Svolvær, Weather by CustomWeather, © 2014

Note: Actual official high and low records may vary slightly from our data, if they occured in-between our weather recording intervals... More about our weather records

Advertising

Svolvær weather history for previous 24 hours

 ConditionsComfort  
Time TempWeatherWind HumidityBarometerVisibility
9:50 PM
Aug 27
50 °FOvercast.5 mph82%30.01 "HgN/A
8:50 PM50 °FOvercast.3 mph82%29.98 "HgN/A
7:50 PM50 °FOvercast.9 mph82%29.98 "HgN/A
5:50 PM50 °FLow clouds.9 mph82%29.98 "HgN/A
4:50 PM50 °FLow clouds.9 mph82%29.95 "HgN/A
3:50 PM50 °FLow clouds.8 mph82%29.95 "HgN/A
1:50 PM50 °FLow clouds.9 mph82%29.95 "HgN/A
12:50 PM50 °FLow clouds.9 mph82%29.95 "HgN/A
11:50 AM48 °FLow clouds.9 mph87%29.95 "HgN/A
10:50 AM48 °FLow clouds.8 mph87%29.92 "HgN/A
9:50 AM48 °FLow clouds.2 mph87%29.92 "HgN/A
8:50 AM48 °FLow clouds.2 mph87%29.92 "HgN/A
7:50 AM48 °FLow clouds.3 mph87%29.92 "HgN/A
6:50 AM46 °FLow clouds.6 mph100%29.92 "HgN/A
5:50 AM48 °FLow clouds.8 mph94%29.89 "HgN/A
5:20 AM46 °FLow clouds.10 mph100%29.92 "HgN/A
Weather by CustomWeather, © 2014

See weather overviewHow to use our weather pages